[TLELIST] Archives

 

[list_settings.list_name] Current TLEs

February 8th 2009 PST

HST 1 20580U 90037B 09037.88376153 .00000293 00000-0 98316-5 0 3219 2 20580 028.4693 232.3999 0003488 355.6133 004.4427 15.00452761830266 ISS (ZARYA) 1 25544U 98067A 09038.19708532 .00009959 00000-0 82961-4 0 2248 2 25544 051.6417 252.5345 0008211 000.7050 101.9684 15.70806190585505 CXO 1 25867U 99040B 09036.91666667 -.00000071 +00000-0 +10000-3 0 02913 2 25867 064.8601 073.5848 7271416 276.7575 357.8026 00.37794944004515 ____________________________________________________________________ These 2-Line ...Continue Reading

[list_settings.list_name] Current TLEs

February 7th 2009 PST

HST 1 20580U 90037B 09035.88828546 +.00000295 +00000-0 +99842-5 0 03267 2 20580 028.4693 245.4123 0003486 334.9013 025.1409 15.00452231829962 ISS (ZARYA) 1 25544U 98067A 09036.79339567 .00006377 00000-0 54970-4 0 2138 2 25544 051.6417 259.7073 0008114 353.1459 086.5146 15.70764581585285 CXO 1 25867U 99040B 09036.91666667 -.00000071 +00000-0 +10000-3 0 02913 2 25867 064.8601 073.5848 7271416 276.7575 357.8026 00.37794944004515 ____________________________________________________________________ These 2-Line ...Continue Reading

[list_settings.list_name] Current TLEs

February 6th 2009 PST

HST 1 20580U 90037B 09036.02131708 .00000302 00000-0 10486-4 0 3200 2 20580 028.4693 244.5446 0003482 336.5577 023.4853 15.00452328829982 ISS (ZARYA) 1 25544U 98067A 09035.51951858 .00006248 00000-0 53991-4 0 2061 2 25544 051.6423 266.2181 0008133 348.3925 083.0030 15.70746254585089 CXO 1 25867U 99040B 09034.29166667 +.00000030 +00000-0 +10000-3 0 02900 2 25867 064.8455 073.6776 7269642 276.8028 000.3714 00.37804462004505 ____________________________________________________________________ These 2-Line ...Continue Reading

[list_settings.list_name] Current TLEs

February 5th 2009 PST

HST 1 20580U 90037B 09034.89054736 .00000284 00000-0 91070-5 0 3194 2 20580 028.4692 251.9195 0003512 324.0454 035.9897 15.00451866829818 ISS (ZARYA) 1 25544U 98067A 09034.50032303 .00006969 00000-0 59688-4 0 2018 2 25544 051.6426 271.4263 0008105 344.8670 079.4567 15.70735355584924 CXO 1 25867U 99040B 09034.29166667 +.00000030 +00000-0 +10000-3 0 02900 2 25867 064.8455 073.6776 7269642 276.8028 000.3714 00.37804462004505 ____________________________________________________________________ These 2-Line ...Continue Reading

[list_settings.list_name] Current TLEs

February 4th 2009 PST

HST 1 20580U 90037B 09032.96158718 +.00000296 +00000-0 +10010-4 0 03350 2 20580 028.4701 264.5056 0003534 300.1524 059.8714 15.00451534829525 ISS (ZARYA) 1 25544U 98067A 09034.18667905 .00007007 00000-0 60004-4 0 1987 2 25544 051.6426 273.0297 0008099 343.7226 105.8651 15.70730756584878 CXO 1 25867U 99040B 09034.29166667 +.00000030 +00000-0 +10000-3 0 02900 2 25867 064.8455 073.6776 7269642 276.8028 000.3714 00.37804462004505 ____________________________________________________________________ These 2-Line ...Continue Reading

[list_settings.list_name] Current TLEs

February 3rd 2009 PST

HST 1 20580U 90037B 09033.02810302 .00000306 00000-0 10803-4 0 3185 2 20580 028.4702 264.0716 0003522 301.1510 058.8734 15.00451634829530 ISS (ZARYA) 1 25544U 98067A 09032.85087131 .00007579 00000-0 64546-4 0 1884 2 25544 051.6435 279.8552 0008128 338.9502 112.1118 15.70712504584669 CXO 1 25867U 99040B 09028.95833333 +.00000116 +00000-0 +10000-3 0 02890 2 25867 064.8100 073.9006 7263619 276.7796 354.4243 00.37806706004480 ____________________________________________________________________ These 2-Line ...Continue Reading

[list_settings.list_name] Current TLEs

February 2nd 2009 PST

HST 1 20580U 90037B 09031.89733342 .00000294 00000-0 98906-5 0 3172 2 20580 028.4702 271.4481 0003582 288.9193 071.1007 15.00451249829360 ISS (ZARYA) 1 25544U 98067A 09031.49920139 .00008939 00000-0 75307-4 0 1807 2 25544 051.6439 286.7618 0007954 332.8715 030.0155 15.70695793584454 CXO 1 25867U 99040B 09028.95833333 +.00000116 +00000-0 +10000-3 0 02890 2 25867 064.8100 073.9006 7263619 276.7796 354.4243 00.37806706004480 ____________________________________________________________________ These 2-Line ...Continue Reading

[list_settings.list_name] Current TLEs

February 1st 2009 PST

HST 1 20580U 90037B 09030.10140486 .00000291 00000-0 96610-5 0 3162 2 20580 028.4707 283.1606 0003630 268.8322 091.1853 15.00450822829096 ISS (ZARYA) 1 25544U 98067A 09030.55535990 .00010472 00000-0 87429-4 0 1735 2 25544 051.6435 291.5837 0007905 329.0243 093.3693 15.70684338584303 CXO 1 25867U 99040B 09028.95833333 +.00000116 +00000-0 +10000-3 0 02890 2 25867 064.8100 073.9006 7263619 276.7796 354.4243 00.37806706004480 ____________________________________________________________________ These 2-Line ...Continue Reading

[list_settings.list_name] Current TLEs

January 31st 2009 PST

HST 1 20580U 90037B 09030.10140486 .00000291 00000-0 96610-5 0 3162 2 20580 028.4707 283.1606 0003630 268.8322 091.1853 15.00450822829096 ISS (ZARYA) 1 25544U 98067A 09030.18305779 .00010652 00000-0 88877-4 0 1710 2 25544 051.6432 293.4857 0007828 327.4935 148.3235 15.70676743584244 CXO 1 25867U 99040B 09028.95833333 +.00000116 +00000-0 +10000-3 0 02890 2 25867 064.8100 073.9006 7263619 276.7796 354.4243 00.37806706004480 ____________________________________________________________________ These 2-Line ...Continue Reading

[list_settings.list_name] Current TLEs

January 30th 2009 PST

HST 1 20580U 90037B 09029.03715120 .00000277 00000-0 85635-5 0 3153 2 20580 028.4706 290.1017 0003692 257.4572 102.5606 15.00450436828934 ISS (ZARYA) 1 25544U 98067A 09028.83908628 .00010552 00000-0 88193-4 0 1610 2 25544 051.6435 300.3533 0007786 321.9488 109.4340 15.70646742584039 CXO 1 25867U 99040B 09028.95833333 +.00000116 +00000-0 +10000-3 0 02890 2 25867 064.8100 073.9006 7263619 276.7796 354.4243 00.37806706004480 ____________________________________________________________________ These 2-Line ...Continue Reading
  • This mailing list is a public mailing list - anyone may join or leave, at any time.
  • This mailing list is announce-only.

International Space Station (ISS) / Hubble Space Telescope (HST) / Chandra X-Ray Observatory Orbital Data via EMAIL

Privacy Policy:

Private list